This is the latest recevied weather packets stored in our database for station/object K7CTM. If no packets are shown the sender has not sent any weather packets the latest 10 day(s).
| Time | Temp. | Humidity | Pressure | Rain* | Wind** | Luminosity | Snow |
|---|---|---|---|---|---|---|---|
| 1787804802 | 22.22° C | 44% | 1030.8 hPa | 0 mm | - | 0 W/m² | - |
| 1787804497 | 22.22° C | 44% | 1030.6 hPa | 0 mm | - | 0 W/m² | - |
| 1787804196 | 22.78° C | 43% | 1030.7 hPa | 0 mm | - | 0 W/m² | - |
| 1787803892 | 23.33° C | 41% | 1030.8 hPa | 0 mm | - | 0 W/m² | - |
| 1787803592 | 23.33° C | 41% | 1030.6 hPa | 0 mm | - | 0 W/m² | - |
| 1787803290 | 23.33° C | 41% | 1030.7 hPa | 0 mm | - | 0 W/m² | - |
| 1787802986 | 23.33° C | 41% | 1030.6 hPa | 0 mm | - | 0 W/m² | - |
| 1787802685 | 23.89° C | 40% | 1030.8 hPa | 0 mm | - | 0 W/m² | - |
| 1787802385 | 23.89° C | 40% | 1030.8 hPa | 0 mm | - | 0 W/m² | - |
| 1787802078 | 24.44° C | 39% | 1031.1 hPa | 0 mm | - | 0 W/m² | - |
| 1787801775 | 23.89° C | 40% | 1030.8 hPa | 0 mm | - | 0 W/m² | - |
| 1787801470 | 23.89° C | 40% | 1030.8 hPa | 0 mm | - | 0 W/m² | - |
| 1787801169 | 23.89° C | 40% | 1030.8 hPa | 0 mm | - | 0 W/m² | - |
| 1787800868 | 23.89° C | 40% | 1031 hPa | 0 mm | - | 0 W/m² | - |
| 1787800563 | 23.89° C | 41% | 1031 hPa | 0 mm | - | 0 W/m² | - |
| 1787800263 | 23.89° C | 41% | 1030.8 hPa | 0 mm | - | 0 W/m² | - |
| 1787799958 | 23.89° C | 40% | 1031.1 hPa | 0 mm | - | 0 W/m² | - |
| 1787799657 | 23.89° C | 40% | 1030.8 hPa | 0 mm | - | 0 W/m² | - |
| 1787799354 | 23.89° C | 41% | 1030.7 hPa | 0 mm | - | 0 W/m² | - |
| 1787799053 | 23.89° C | 40% | 1030.7 hPa | 0 mm | - | 0 W/m² | - |
| 1787798753 | 23.89° C | 43% | 1030.5 hPa | 0 mm | - | 0 W/m² | - |
| 1787798448 | 23.89° C | 43% | 1030.3 hPa | 0 mm | - | 0 W/m² | - |
| 1787798144 | 25° C | 37% | 1030.2 hPa | 0 mm | - | 0 W/m² | - |
| 1787797842 | 25.56° C | 36% | 1030.5 hPa | 0 mm | - | 0 W/m² | - |
| 1787797538 | 25.56° C | 36% | 1030.3 hPa | 0 mm | - | 0 W/m² | - |
* Rain latest hour (hover to see other rain measurements)
** Current wind speed in m/s (hover to see current wind gust speed)